STARLINK-32101 (60447 NORAD) Tracking and Keplerian Element Data

This shows tracking and keplerian element data for the satellite.

Feedback or suggestion? Click here.




ElementValue
Catalog60447
NameSTARLINK-32101
Epoch Orbit1079
Epoch Day286.84107335
Epoch Year2024
RAAN78.9737
Inclination53.1617
Eccentricity0.000147
Argument of Perigee57.9473
Mean Anonmoly302.167
Mean Motion15.30194294
Decay Rate-4.09E-06
L11 60447U 24144Y 24286.84107335 -.00000409 00000+0 -16799-5 0 9990
L22 60447 53.1617 78.9737 0001470 57.9473 302.1670 15.30194294 10798



Live tracking and technical data element details for STARLINK-32101 (NORAD 60447). STARLINK-32101 can be tracked NOW for your location showing map with azimuth and elevation plus other details from your city location.







IsCatalogInMostPopularTable: catalog: 60447, numindb: 7
Update: records affected: 1



GetName: 60447 STARLINK-32101

Hit Count: updated at: Tue, 03 Dec 2024 02:59:08 GMT